Tucson, AZ

4:03 PM MST on August 21, 2017 (GMT -0700)
Tucson International

Weather History for KTUS - April, 2012

Change the Weather History Date:

Sunday, April 8, 2012

  Actual Average Record
Temperature  
Mean Temperature 73 °F 65 °F  
Max Temperature 92 °F 80 °F 99 °F (1989)
Min Temperature 53 °F 50 °F 33 °F (1929)
Degree Days  
Heating Degree Days 0 3  
Month to date heating degree days 15 25  
Since 1 July heating degree days 1412 1471  
Cooling Degree Days 8 3  
Month to date cooling degree days 19 18  
Year to date cooling degree days 56 51  
Growing Degree Days 22 (Base 50)    
Moisture  
Dew Point 17 °F    
Average Humidity 15    
Maximum Humidity 24    
Minimum Humidity 6    
Precipitation  
Precipitation 0.00 in 0.01 in 1.03 in (1919)
Month to date precipitation 0.00 0.12  
Year to date precipitation 0.56 2.65  
Snow  
Snow 0.00 in - - ()
Month to date snowfall 0.0  
Snow Depth 0.00 in    
Sea Level Pressure  
Sea Level Pressure 29.96 in    
Wind  
Wind Speed 6 mph (South)    
Max Wind Speed 18 mph    
Max Gust Speed 24 mph    
Visibility 10 miles    
Events      
T = Trace of Precipitation, MM = Missing Value Source: NWS Daily Summary

Daily Weather History Graph

Daily Weather History Graph

Search for Another Location

Airport or City:

Trip Planner

Search our weather history database for the weather conditions in past years. The results will help you decide how hot, cold, wet, or windy it might be!

Date:

Astronomy

Apr. 08, 2012 Rise Set
Actual Time 6:02 AM MST 6:48 PM MST
Civil Twilight 5:37 AM MST 7:13 PM MST
Nautical Twilight 5:08 AM MST 7:42 PM MST
Astronomical Twilight 4:38 AM MST 8:13 PM MST
Moon 9:27 PM MST (4/8) 7:11 AM MST (4/8)
Length of Visible Light 13h 35m
Length of Day
12h 46m
Waning Gibbous, 94% of the Moon is Illuminated
Apr 8
Waning Gibbous
Apr 13
Last Quarter
Apr 21
New
Apr 29
First Quarter
May 5
Full

Hourly Weather History & Observations

Time (MST) Temp. Dew Point Humidity Pressure Visibility Wind Dir Wind Speed Gust Speed Precip Events Conditions
12:53 AM 61.0 °F 15.1 °F 17% 29.98 in 10.0 mi SE 6.9 mph - N/A   Clear
1:53 AM 59.0 °F 16.0 °F 19% 29.99 in 10.0 mi SE 6.9 mph - N/A   Clear
2:53 AM 55.9 °F 17.1 °F 22% 29.98 in 10.0 mi SSE 9.2 mph - N/A   Clear
3:53 AM 55.0 °F 17.1 °F 23% 29.98 in 10.0 mi SE 8.1 mph - N/A   Clear
4:53 AM 54.0 °F 18.0 °F 24% 29.99 in 10.0 mi SE 8.1 mph - N/A   Clear
5:53 AM 54.0 °F 18.0 °F 24% 29.99 in 10.0 mi SE 6.9 mph - N/A   Clear
6:53 AM 57.9 °F 18.0 °F 21% 30.01 in 10.0 mi SE 10.4 mph - N/A   Clear
7:53 AM 68.0 °F 18.0 °F 15% 30.02 in 10.0 mi SSE 8.1 mph - N/A   Clear
8:53 AM 73.0 °F 18.0 °F 12% 30.02 in 10.0 mi SE 5.8 mph - N/A   Clear
9:53 AM 77.0 °F 18.0 °F 11% 30.02 in 10.0 mi Calm Calm - N/A   Clear
10:53 AM 82.9 °F 18.0 °F 9% 30.00 in 2.5 mi SE 5.8 mph - N/A   Haze
11:04 AM 82.4 °F 17.6 °F 9% 30.11 in 10.0 mi ESE 3.5 mph - N/A   Clear
11:53 AM 84.9 °F 19.0 °F 9% 29.97 in 10.0 mi Calm Calm - N/A   Clear
12:53 PM 87.1 °F 21.0 °F 9% 29.95 in 10.0 mi South 6.9 mph - N/A   Clear
1:53 PM 90.0 °F 21.0 °F 8% 29.91 in 10.0 mi South 8.1 mph - N/A   Clear
2:53 PM 91.0 °F 19.0 °F 7% 29.89 in 10.0 mi Variable 4.6 mph - N/A   Clear
3:53 PM 91.9 °F 19.9 °F 7% 29.87 in 10.0 mi South 8.1 mph 18.4 mph N/A   Clear
4:53 PM 91.0 °F 16.0 °F 6% 29.87 in 10.0 mi NW 8.1 mph 20.7 mph N/A   Clear
5:53 PM 88.0 °F 15.1 °F 7% 29.88 in 10.0 mi NW 11.5 mph - N/A   Clear
6:53 PM 84.0 °F 15.1 °F 8% 29.89 in 10.0 mi WNW 6.9 mph - N/A   Clear
7:53 PM 81.0 °F 16.0 °F 9% 29.90 in 10.0 mi WNW 6.9 mph - N/A   Clear
8:53 PM 78.8 °F 14.0 °F 9% 30.04 in 10.0 mi WSW 5.8 mph - N/A   Clear
9:53 PM 73.0 °F 16.0 °F 11% 29.94 in 10.0 mi West 6.9 mph - N/A   Clear
10:53 PM 71.1 °F 15.1 °F 12% 29.94 in 10.0 mi Calm Calm - N/A   Clear
11:53 PM 68.0 °F 15.1 °F 13% 29.94 in 10.0 mi SW 4.6 mph - N/A   Clear